weather.gov     
National Weather Service

Miscellaneous Local Product
NWS Homepage
This page is being discontinued on March 12, 2014.
The same data is available at this site. Please update your bookmarks.
Thank you, and we apologize for the inconvenience.
Please send an email to SR-SRH.Webmaster@noaa.gov with any concerns.


Current Version
Previous Version:    01  02  03  04  05  06  07  08  09  10  11  12  13  14  15  16  17  18  19  20  21  22  23  24  25  26  27  28  29  30  
   31  32  33  34  35  36  37  38  39  40  41  42  43  44  45  46  47  48  49  50  51  52  53  54  55  56  57  58  59  60  
[Printable]
483
AXUS43 KLBF 240110
MISLBF


WESTERN AND NORTH CENTRAL NEBRASKA HOURLY WEATHER ROUNDUP
NATIONAL WEATHER SERVICE NORTH PLATTE NE
700 PM CST SUN NOV 23 2014

***STATIONS NOT REPORTING VARIABLES SUCH AS SKY/WEATHER OR
PRESSURE ARE PROVIDED BY THE NEBRASKA DEPARTMENT OF
ROADS...RAWS...AND APRS NETWORKS...AND ARE NOT UNDER
NATIONAL WEATHER SERVICE QUALITY CONTROL***

...OBSERVATIONS IN AND NEAR THE EASTERN PANHANDLE OF NEBRASKA...

CITY           SKY/WX    TMP DP  RH WIND       PRES   REMARKS
PINE RIDGE     CLOUDY    36  21  54 W9        29.77R WCI  29
CHADRON        CLOUDY    34  22  61 NW9       29.81R WCI  27
ALLIANCE       PTCLDY    34  18  52 NW20      29.78S WCI  23
SIDNEY         CLEAR     31  14  49 NW14      29.82R WCI  21
WHITECLAY        N/A     35  20  54 W10         N/A  WCI  27
LISCO            N/A     37  11  34 W17         N/A  WCI  27
BIG SPRINGS      N/A     36  18  47 NW7         N/A  WCI  30
LEWELLEN         N/A     16  -6  38 CALM        N/A
$$

...OBSERVATIONS IN NORTH CENTRAL NEBRASKA...

CITY           SKY/WX    TMP DP  RH WIND       PRES   REMARKS
VALENTINE      LGT SNOW  34  28  79 NW24G35   29.70R WCI  21
THEDFORD       CLEAR     37  22  53 NW21G30   29.71R WCI  27
AINSWORTH      MOCLDY    35  26  70 NW18G24   29.68R WCI  24
O`NEILL        MOCLDY    36  26  66 NW29G39   29.64R WCI  23
ORD            CLEAR     39  21  48 NW20G29   29.63R WCI  29
BROKEN BOW     CLEAR     40  20  44 NW29G44   29.66R WCI  29
BROWNLEE         N/A     37  23  56 NW35        N/A  WCI  24
BREWSTER         N/A     40  24  53 NW24        N/A  WCI  29
COMSTOCK         N/A     42  21  43 NW17        N/A
$$

...OBSERVATIONS IN SOUTHWEST NEBRASKA AND FAR NORTHEAST COLORADO...

CITY           SKY/WX    TMP DP  RH WIND       PRES   REMARKS
WRAY           FAIR      35   9  33 NW9       29.81R WCI  28
HOLYOKE        FAIR      37  14  38 NW13      29.80R WCI  29
IMPERIAL       CLEAR     36  12  37 NW14      29.78R WCI  27
OGALLALA       CLEAR     38  19  46 NW23G30   29.76R WCI  27
NORTH PLATTE   PTCLDY    37  20  50 NW12      29.72R WCI  29
MCCOOK         PTCLDY    41  13  31 NW21      29.73R
LEXINGTON      PTCLDY    39  19  43 NW12      29.69S WCI  32
PAXTON           N/A     39  20  46 NW12        N/A  WCI  32
GOTHENBURG       N/A     39  18  43 NW12        N/A  WCI  32
CALLAWAY         N/A     38  22  52 NW20        N/A  WCI  28
$$

...SOME WEATHER OBSERVATIONS FROM AROUND THE REGION...

CITY           SKY/WX    TMP DP  RH WIND       PRES   REMARKS
DENVER         CLOUDY    31  17  56 N25       29.88R WCI  17
LARAMIE        MOCLDY    18  15  88 NW8       29.85R WCI   8
CHEYENNE       MOCLDY    26  16  65 NW17G28   29.85R WCI  13
SCOTTSBLUFF    MOCLDY    34  18  52 NW12      29.84R WCI  25
RAPID CITY     PTCLDY    34  21  59 NW20G28   29.72S WCI  23
PIERRE         CLOUDY    30  19  63 NW29G37   29.67R WCI  15
WINNER         CLOUDY    33  23  66 NW28G36   29.67S WCI  20
SIOUX FALLS    CLOUDY    33  26  75 NW24      29.54R WCI  20
OMAHA          CLOUDY    44  30  57 NW24G32   29.54R
KANSAS CITY    LGT RAIN  43  41  93 NW24G36   29.42R
WICHITA        CLOUDY    43  38  82 N17G26    29.59R
HAYS           CLOUDY    43  21  42 NW12      29.68R
LIBERAL        MOCLDY    39  12  33 NW9       29.79R WCI  33
GOODLAND       CLEAR     32   9  38 NW13      29.79R WCI  22
$$




U.S. Dept. of Commerce
NOAA National Weather Service
1325 East West Highway
Silver Spring, MD 20910
E-mail: w-nws.webmaster@noaa.gov
Page last modified: May 16, 2007
NATIONAL WEATHER SERVICE: for Safety, for Work, for Fun - FOR LIFE